[[{"header":{"parameterUnit":"m.s-1","parameterCategory":1,"la1":30.2991,"la2":30.254,"lo1":-89.0895,"lo2":-89.0444,"dy":0.0017,"dx":0.0017,"nx":28,"ny":28,"refTime":"2023-09-14T09:00:00:Z","depth":0,"parameterNumber":2,"parameterNumberName":"U-component_of_WINDS"},"data":[0,0,0,0,0,0,0,0,0,0,0,0,0,0,0,0,0,0,0,0,0,0,0,0,0,0,0,0,0,0,0,0,0,0,0,0,0,0,0,0,0,0,0,0,0,0,0,0,0,0,0,0,0,0,0,0,0,0,0.3243,0.3245,0,0.3416,0.3418,0.342,0.3524,0.3525,0.3525,0.3526,0.3704,0.3708,0.3712,0,0,0,0,0,0,0,0,0,0,0,0,0,0.3002,0.3006,0.3243,0.3245,0.3247,0.3416,0.3418,0.3421,0.3524,0.3525,0.3525,0.3526,0.3702,0.3707,0.3713,0,0,0,0,0,0,0,0,0,0,0,0,0,0.3134,0.3007,0.3242,0.3319,0.3327,0.3416,0.3419,0.3422,0.3524,0.3525,0.3525,0.3526,0.3701,0.3707,0.3713,0.3739,0,0,0.3733,0.3736,0,0,0,0,0,0,0,0,0.3126,0.3143,0.3305,0.3314,0.3324,0.3449,0.3399,0.3528,0.3524,0.3449,0.3526,0.3526,0.3619,0.3632,0.3663,0.3747,0.3755,0.3734,0.3738,0.374,0.3742,0,0,0,0,0,0,0,0.3117,0.3136,0.3311,0.3308,0.3319,0.3345,0.3365,0.3424,0.3528,0.3456,0.3464,0.3483,0.3624,0.3656,0.3668,0.3757,0.3733,0.3739,0.3743,0.3746,0.3873,0.3872,0,0,0,0,0,0,0.3095,0.3127,0.3306,0.3317,0.3225,0.3349,0.3371,0.3408,0.3528,0.3546,0.3482,0.3487,0.3645,0.366,0.3674,0.3713,0.374,0.3746,0.375,0.3873,0.3873,0.3872,0,0,0,0,0,0,0.309,0.311,0.3299,0.3224,0.325,0.3352,0.3394,0.3411,0.3444,0.3547,0.3566,0.3496,0.3646,0.3665,0.3722,0.372,0.3749,0.3755,0.3874,0.3873,0.3872,0.3788,0,0,0,0,0,0,0.3083,0.3108,0.3118,0.3224,0.3254,0.3343,0.3393,0.3414,0.3455,0.3463,0.3566,0.3583,0.3648,0.3712,0.3729,0.373,0.376,0.3874,0.3874,0.3873,0.3792,0.3785,0.3779,0,0,0,0,0,0.3074,0.3087,0.3118,0.3139,0.3269,0.3343,0.336,0.3434,0.3454,0.3466,0.3532,0.358,0.3718,0.3717,0.3737,0.3739,0.3875,0.3874,0.3873,0.3795,0.3786,0.3779,0,0,0,0,0,0,0.2978,0.3103,0.3138,0.3186,0.3253,0.336,0.3377,0.3423,0.3485,0.349,0.358,0.3602,0.365,0.3701,0.3698,0.3771,0.3802,0.3805,0.3736,0.3729,0.3722,0.3709,0.3765,0,0,0,0,0,0.2963,0.3013,0.3119,0.3151,0.3183,0.3274,0.3309,0.336,0.3433,0.3462,0.3533,0.3602,0.3661,0.3698,0.3758,0.38,0.3824,0.3812,0.3805,0.38,0.3801,0.3827,0.3823,0.3869,0.3869,0.3869,0,0,0.2932,0.3006,0.3031,0.3134,0.3192,0.3241,0.3297,0.3347,0.3384,0.347,0.3528,0.3582,0.3665,0.3715,0.374,0.3759,0.3794,0.3798,0.3793,0.3797,0.3826,0.3821,0.3817,0.3868,0.3868,0.3868,0,0,0.29,0.2961,0.2995,0.3052,0.3139,0.32,0.3208,0.3308,0.3348,0.3407,0.3473,0.3519,0.3619,0.3676,0.3718,0.3709,0.3755,0.3726,0.3692,0.3717,0.3713,0.3711,0.3708,0.3705,0.3727,0.3727,0.3727,0,0.285,0.2927,0.3006,0.3053,0.3096,0.3176,0.3211,0.3263,0.3365,0.3393,0.3413,0.354,0.3602,0.3666,0.3664,0.3695,0.3708,0.3714,0.3708,0.3706,0.3704,0.3702,0.3701,0.3723,0.3723,0.3724,0.3724,0,0.2861,0.2914,0.2931,0.3027,0.3073,0.3113,0.3199,0.3236,0.3284,0.3343,0.3403,0.348,0.3557,0.3577,0.3624,0.3648,0.3657,0.369,0.3723,0.3694,0.3694,0.3694,0.3717,0.3718,0.3719,0.372,0,0,0.2773,0.2914,0.2919,0.2964,0.3067,0.3109,0.3154,0.3229,0.3259,0.3327,0.3367,0.345,0.3483,0.353,0.3585,0.3607,0.3595,0.3638,0.3642,0.3627,0.3627,0.36,0.3597,0.3627,0.3627,0.3627,0.3619,0,0.2756,0.2839,0.2913,0.2969,0.3019,0.3097,0.3136,0.3203,0.326,0.331,0.3374,0.3431,0.3469,0.3498,0.3524,0.3591,0.3596,0.3593,0.3665,0.3666,0.364,0.3597,0.3569,0.3558,0.362,0.362,0.362,0,0.2746,0.2811,0.2873,0.2971,0.2995,0.3028,0.3104,0.3152,0.3231,0.327,0.3324,0.3381,0.3433,0.3461,0.3533,0.3529,0.3564,0.3601,0.3603,0.3612,0.364,0.3604,0.3556,0.3554,0.3621,0.362,0.362,0,0.2675,0.2778,0.2828,0.2865,0.2981,0.3003,0.3053,0.3132,0.3173,0.324,0.3268,0.3339,0.3378,0.3433,0.3508,0.3522,0.3573,0.3607,0.3607,0.3605,0.3613,0.3612,0.3569,0.3636,0.3636,0.3637,0.3637,0,0.2647,0.2681,0.2798,0.2829,0.287,0.2955,0.2994,0.305,0.312,0.3164,0.3236,0.3275,0.3373,0.3425,0.3485,0.3535,0.3553,0.3586,0.3602,0.3579,0.3575,0.3602,0.3605,0.3636,0.3636,0.3636,0.3636,0,0.2573,0.2653,0.2713,0.2819,0.2846,0.2872,0.2963,0.2996,0.3057,0.3111,0.3129,0.3225,0.329,0.3371,0.3461,0.3501,0.3546,0.357,0.3519,0.3527,0.3523,0.3522,0.3495,0.3496,0.3563,0.3562,0.3561,0,0.255,0.2578,0.2687,0.2722,0.2769,0.2824,0.2866,0.2952,0.2993,0.3085,0.3107,0.3177,0.3238,0.3337,0.3415,0.3485,0.3511,0.3497,0.3522,0.3499,0.351,0.3507,0.351,0.349,0.3489,0.3488,0.3487,0,0.25,0.2538,0.2596,0.2669,0.2718,0.2779,0.2843,0.2867,0.2966,0.3009,0.3076,0.3123,0.3215,0.3284,0.3364,0.3416,0.3468,0.3479,0.3483,0.346,0.3429,0.3445,0.35,0.3479,0.348,0.348,0.3481,0.3481,0.2451,0.248,0.2561,0.2624,0.2681,0.274,0.2777,0.2843,0.29,0.2982,0.3029,0.3094,0.3174,0.3287,0.3337,0.3389,0.3409,0.3414,0.3415,0.3415,0.3408,0.3421,0.3404,0.3405,0.3405,0.3406,0.3406,0,0.2403,0.246,0.2517,0.2605,0.2655,0.27,0.2774,0.2812,0.2869,0.2939,0.2997,0.3074,0.3141,0.3225,0.3298,0.3324,0.335,0.3341,0.3339,0.335,0.3386,0.3376,0.3319,0.3319,0.3319,0.3319,0.3319,0.3319,0.2385,0.2436,0.2484,0.2565,0.2622,0.2687,0.2725,0.278,0.2836,0.2919,0.2975,0.3029,0.3105,0.3185,0.3249,0.3272,0.3295,0.3278,0.3308,0.334,0.3348,0.3355,0.3345,0.3283,0.3283,0.3268,0.3268,0.3268]},{"header":{"parameterUnit":"m.s-1","parameterCategory":1,"la1":30.2991,"la2":30.254,"lo1":-89.0895,"lo2":-89.0444,"dy":0.0017,"dx":0.0017,"nx":28,"ny":28,"refTime":"2023-09-14T09:00:00:Z","depth":0,"parameterNumber":3,"parameterNumberName":"V-component_of_WINDS"},"data":[0,0,0,0,0,0,0,0,0,0,0,0,0,0,0,0,0,0,0,0,0,0,0,0,0,0,0,0,0,0,0,0,0,0,0,0,0,0,0,0,0,0,0,0,0,0,0,0,0,0,0,0,0,0,0,0,0,0,-0.2397,-0.2398,0,-0.253,-0.2531,-0.2533,-0.2588,-0.2587,-0.2587,-0.2587,-0.2723,-0.2727,-0.273,0,0,0,0,0,0,0,0,0,0,0,0,0,-0.2191,-0.2194,-0.2397,-0.2398,-0.24,-0.2529,-0.2531,-0.2533,-0.2588,-0.2587,-0.2587,-0.2587,-0.2722,-0.2726,-0.2731,0,0,0,0,0,0,0,0,0,0,0,0,0,-0.2297,-0.2195,-0.2397,-0.2443,-0.2449,-0.2529,-0.2531,-0.2534,-0.2588,-0.2587,-0.2587,-0.2587,-0.272,-0.2726,-0.2731,-0.2776,0,0,-0.2749,-0.2752,0,0,0,0,0,0,0,0,-0.2291,-0.2305,-0.2435,-0.244,-0.2446,-0.2542,-0.2508,-0.2615,-0.2588,-0.2535,-0.2587,-0.2586,-0.2663,-0.2673,-0.2699,-0.2782,-0.2788,-0.275,-0.2753,-0.2756,-0.2757,0,0,0,0,0,0,0,-0.2284,-0.2299,-0.2449,-0.2436,-0.2444,-0.2457,-0.2472,-0.2529,-0.26,-0.254,-0.2544,-0.2559,-0.2666,-0.2693,-0.2703,-0.279,-0.275,-0.2755,-0.2758,-0.2761,-0.2915,-0.2916,0,0,0,0,0,0,-0.2269,-0.2293,-0.2445,-0.2453,-0.2366,-0.2461,-0.2478,-0.2511,-0.2599,-0.2612,-0.2559,-0.2561,-0.2684,-0.2696,-0.2708,-0.2765,-0.2756,-0.2761,-0.2765,-0.2915,-0.2915,-0.2916,0,0,0,0,0,0,-0.2264,-0.2282,-0.244,-0.2374,-0.2396,-0.2465,-0.2503,-0.2514,-0.2542,-0.2614,-0.2627,-0.2574,-0.2684,-0.27,-0.2758,-0.2771,-0.2764,-0.2769,-0.2914,-0.2915,-0.2916,-0.288,0,0,0,0,0,0,-0.2258,-0.228,-0.2297,-0.2374,-0.2399,-0.2488,-0.2504,-0.2517,-0.2552,-0.2555,-0.2631,-0.2644,-0.2685,-0.2749,-0.2764,-0.2779,-0.2774,-0.2913,-0.2914,-0.2916,-0.2881,-0.288,-0.2879,0,0,0,0,0,-0.225,-0.2282,-0.2298,-0.2316,-0.2422,-0.2489,-0.2503,-0.2549,-0.2552,-0.2571,-0.2617,-0.2641,-0.2767,-0.2755,-0.2772,-0.2788,-0.2913,-0.2914,-0.2915,-0.2881,-0.288,-0.2879,0,0,0,0,0,0,-0.2205,-0.2293,-0.2312,-0.2369,-0.2421,-0.2498,-0.2522,-0.2547,-0.2599,-0.26,-0.2656,-0.2673,-0.2727,-0.2764,-0.2749,-0.2836,-0.2842,-0.2847,-0.281,-0.2809,-0.2809,-0.2799,-0.2778,0,0,0,0,0,-0.2201,-0.2248,-0.2323,-0.2366,-0.2391,-0.2452,-0.2483,-0.2514,-0.257,-0.2592,-0.2643,-0.2696,-0.2748,-0.2781,-0.2832,-0.2886,-0.2903,-0.2906,-0.2905,-0.2904,-0.2908,-0.2939,-0.2941,-0.2921,-0.2921,-0.2921,0,0,-0.2195,-0.2249,-0.2275,-0.2358,-0.2402,-0.2449,-0.247,-0.2519,-0.2554,-0.26,-0.2658,-0.2697,-0.276,-0.2817,-0.2844,-0.2849,-0.2917,-0.2906,-0.2905,-0.2909,-0.294,-0.2942,-0.2944,-0.2922,-0.2922,-0.2921,0,0,-0.2207,-0.2253,-0.2294,-0.2337,-0.2403,-0.2444,-0.2453,-0.2527,-0.2554,-0.2614,-0.2649,-0.2692,-0.2779,-0.2823,-0.2856,-0.2884,-0.2909,-0.29,-0.2896,-0.2926,-0.2927,-0.2929,-0.2939,-0.2942,-0.2903,-0.2903,-0.2903,0,-0.2191,-0.2263,-0.2312,-0.2359,-0.2394,-0.2438,-0.248,-0.252,-0.2599,-0.2622,-0.2627,-0.2738,-0.2783,-0.285,-0.2857,-0.2883,-0.2896,-0.2891,-0.2923,-0.2925,-0.2927,-0.2937,-0.2941,-0.2901,-0.2901,-0.2902,-0.2902,0,-0.2239,-0.2289,-0.2314,-0.2389,-0.2428,-0.2472,-0.2528,-0.2561,-0.2589,-0.2628,-0.2688,-0.2745,-0.2808,-0.2826,-0.2854,-0.2897,-0.2898,-0.2912,-0.2919,-0.2927,-0.2937,-0.2942,-0.2899,-0.29,-0.29,-0.29,0,0,-0.2227,-0.2328,-0.2337,-0.2372,-0.2447,-0.2487,-0.2533,-0.2595,-0.2622,-0.2675,-0.2715,-0.2788,-0.2801,-0.2839,-0.2872,-0.2898,-0.2917,-0.2909,-0.2911,-0.2908,-0.2968,-0.2957,-0.296,-0.2933,-0.2934,-0.2935,-0.2962,0,-0.2249,-0.2333,-0.2379,-0.2444,-0.249,-0.2532,-0.2572,-0.2622,-0.2661,-0.2705,-0.2748,-0.2798,-0.2812,-0.2835,-0.2863,-0.2908,-0.2929,-0.2907,-0.2971,-0.2972,-0.2954,-0.2966,-0.2955,-0.2978,-0.2967,-0.2967,-0.2968,0,-0.2287,-0.2339,-0.2408,-0.2479,-0.25,-0.2535,-0.2595,-0.2638,-0.2696,-0.2722,-0.2764,-0.2797,-0.2847,-0.285,-0.292,-0.2903,-0.2932,-0.2958,-0.2961,-0.2968,-0.297,-0.2974,-0.2986,-0.299,-0.2975,-0.2974,-0.2974,0,-0.227,-0.2358,-0.2411,-0.2439,-0.2523,-0.2546,-0.2582,-0.264,-0.2675,-0.2727,-0.275,-0.2808,-0.2839,-0.2883,-0.2931,-0.2929,-0.2995,-0.3003,-0.3018,-0.3017,-0.3031,-0.3029,-0.3048,-0.3049,-0.3049,-0.3049,-0.3049,0,-0.229,-0.2331,-0.2405,-0.2437,-0.2484,-0.2536,-0.2581,-0.262,-0.2671,-0.2712,-0.2752,-0.2789,-0.2849,-0.2894,-0.2932,-0.2983,-0.2998,-0.302,-0.3029,-0.3016,-0.3013,-0.3036,-0.3036,-0.305,-0.305,-0.3049,-0.3049,0,-0.228,-0.2331,-0.2391,-0.2465,-0.2485,-0.2516,-0.2579,-0.2612,-0.2652,-0.2703,-0.2718,-0.2781,-0.2836,-0.2888,-0.2961,-0.2986,-0.3038,-0.3051,-0.3019,-0.3024,-0.3037,-0.3035,-0.307,-0.3078,-0.3073,-0.3073,-0.3073,0,-0.2289,-0.2322,-0.2399,-0.2429,-0.2464,-0.2512,-0.2547,-0.2599,-0.2634,-0.2703,-0.2727,-0.2785,-0.2834,-0.292,-0.2972,-0.3029,-0.3043,-0.3051,-0.3051,-0.3037,-0.3043,-0.304,-0.3044,-0.305,-0.305,-0.305,-0.305,0,-0.2301,-0.2324,-0.2373,-0.2431,-0.2472,-0.252,-0.2569,-0.2591,-0.2653,-0.269,-0.2747,-0.2785,-0.2859,-0.2916,-0.2978,-0.3015,-0.3043,-0.3049,-0.3056,-0.3043,-0.3023,-0.3034,-0.3016,-0.3048,-0.3048,-0.3048,-0.3048,-0.3049,-0.2301,-0.2331,-0.239,-0.2443,-0.2486,-0.2531,-0.2566,-0.261,-0.2658,-0.2723,-0.2751,-0.2808,-0.2865,-0.2952,-0.2988,-0.3034,-0.304,-0.3049,-0.3052,-0.3054,-0.3051,-0.3015,-0.3045,-0.3045,-0.3046,-0.3046,-0.3046,0,-0.2314,-0.2354,-0.2402,-0.247,-0.2512,-0.2534,-0.2589,-0.2623,-0.2673,-0.2724,-0.2771,-0.2836,-0.2891,-0.2948,-0.3006,-0.3032,-0.3046,-0.3045,-0.3044,-0.3052,-0.3042,-0.303,-0.3033,-0.3033,-0.3033,-0.3033,-0.3033,-0.3033,-0.2326,-0.2379,-0.2409,-0.2483,-0.2523,-0.2579,-0.2609,-0.2651,-0.2692,-0.2763,-0.2809,-0.2845,-0.2899,-0.2961,-0.3013,-0.3028,-0.3048,-0.3044,-0.3062,-0.3052,-0.3053,-0.3053,-0.3043,-0.3047,-0.3047,-0.3068,-0.3069,-0.3069]}]]